DELTA 2 R/B(1) (20453 NORAD) Tracking and Keplerian Element Data

This shows tracking and keplerian element data for the satellite.

Feedback or suggestion? Click here.




ElementValue
Catalog20453
NameDELTA 2 R/B(1)
Epoch Orbit52931
Epoch Day348.92094871
Epoch Year2018
RAAN260.203
Inclination35.6244
Eccentricity0.0283721
Argument of Perigee32.5099
Mean Anonmoly329.275
Mean Motion14.84558081
Decay Rate1.388E-05
L11 20453U 90008B 18348.92094871 .00001388 00000-0 81536-4 0 9992
L22 20453 35.6244 260.2030 0283721 32.5099 329.2750 14.84558081529316

Live tracking and technical data element details for DELTA 2 R/B(1) (NORAD 20453). DELTA 2 R/B(1) can be tracked NOW for your location showing map with azimuth and elevation plus other details from your city location.

Track the satellite on the map from your city or location and see movement details for azimuth, elevation, latitude, longitude, range, height, and movement on the map or in text.







IsCatalogInMostPopularTable: catalog: 20453, numindb: 54
Update: records affected: 1



GetName: 20453 DELTA 2 R/B(1)

Hit Count: updated at: Sat, 15 Dec 2018 13:54:12 GMT